Weather History for KCLE - April, 2013

Change the Weather History Date:

Monday, April 22, 2013

  Actual Average Record
Temperature  
Mean Temperature 51 °F 52 °F  
Max Temperature 65 °F 62 °F 84 °F (1985)
Min Temperature 36 °F 43 °F 23 °F (1875)
Degree Days  
Heating Degree Days 14 13  
Month to date heating degree days 382 374  
Since 1 July heating degree days 5521 5417  
Cooling Degree Days 0 1  
Month to date cooling degree days 2 2  
Year to date cooling degree days 2 3  
Moisture  
Dew Point 31 °F    
Average Humidity 48    
Maximum Humidity 64    
Minimum Humidity 32    
Precipitation  
Precipitation 0.00 in 0.11 in 0.74 in (1977)
Month to date precipitation 2.46 2.64  
Year to date precipitation 9.18 10.63  
Snow  
Snow 0.00 in 0.00 in - ()
Month to date snowfall 0.3 3.1  
Since 1 July snowfall 51.7 67.9  
Snow Depth 0.00 in    
Sea Level Pressure  
Sea Level Pressure 30.36 in    
Wind  
Wind Speed 9 mph (SE)    
Max Wind Speed 18 mph    
Max Gust Speed 22 mph    
Visibility 10 miles    
Events      
T = Trace of Precipitation, MM = Missing Value Source: NWS Daily Summary

Daily Weather History Graph

Daily Weather History Graph

Search for Another Location

Airport or City:

Trip Planner

Search our weather history database for the weather conditions in past years. The results will help you decide how hot, cold, wet, or windy it might be!

Date:

Astronomy

Apr. 22, 2013 Rise Set
Actual Time 6:36 AM EDT 8:15 PM EDT
Civil Twilight 6:07 AM EDT 8:44 PM EDT
Nautical Twilight 5:32 AM EDT 9:20 PM EDT
Astronomical Twilight 4:54 AM EDT 9:58 PM EDT
Moon 5:01 PM EDT (4/22) 4:33 AM EDT (4/22)
Length of Visible Light 14h 37m
Length of Day
13h 38m
Waxing Gibbous, 87% of the Moon is Illuminated
Apr 22
Waxing Gibbous
Apr 25
Full
May 2
Last Quarter
May 9
New
May 18
First Quarter

Hourly Weather History & Observations

Time (EDT) Temp. Windchill Dew Point Humidity Pressure Visibility Wind Dir Wind Speed Gust Speed Precip Events Conditions
12:51 AM 39.0 °F 33.4 °F 26.1 °F 60% 30.49 in 10.0 mi East 8.1 mph - N/A   Scattered Clouds
1:51 AM 37.9 °F 32.7 °F 25.0 °F 60% 30.47 in 10.0 mi ESE 6.9 mph - N/A   Mostly Cloudy
2:51 AM 37.0 °F 32.4 °F 26.1 °F 65% 30.45 in 10.0 mi ESE 5.8 mph - N/A   Mostly Cloudy
3:51 AM 37.0 °F 34.5 °F 26.1 °F 65% 30.43 in 10.0 mi South 3.5 mph - N/A   Mostly Cloudy
4:51 AM 37.9 °F 33.5 °F 25.0 °F 60% 30.43 in 10.0 mi SSE 5.8 mph - N/A   Mostly Cloudy
5:51 AM 39.0 °F 33.4 °F 24.1 °F 55% 30.42 in 10.0 mi SE 8.1 mph - N/A   Scattered Clouds
6:51 AM 39.0 °F 34.0 °F 24.1 °F 55% 30.43 in 10.0 mi SE 6.9 mph - N/A   Partly Cloudy
7:51 AM 42.1 °F 36.6 °F 26.1 °F 53% 30.43 in 10.0 mi SE 9.2 mph - N/A   Partly Cloudy
8:51 AM 46.9 °F - 28.0 °F 48% 30.43 in 10.0 mi SSE 10.4 mph - N/A   Partly Cloudy
9:51 AM 50.0 °F - 30.0 °F 46% 30.42 in 10.0 mi SSE 6.9 mph - N/A   Partly Cloudy
10:51 AM 54.0 °F - 33.1 °F 45% 30.40 in 10.0 mi South 10.4 mph - N/A   Partly Cloudy
11:51 AM 57.0 °F - 34.0 °F 42% 30.40 in 10.0 mi South 6.9 mph - N/A   Partly Cloudy
12:51 PM 59.0 °F - 34.0 °F 39% 30.38 in 10.0 mi Variable 3.5 mph - N/A   Partly Cloudy
1:51 PM 61.0 °F - 34.0 °F 36% 30.34 in 10.0 mi SSE 9.2 mph - N/A   Partly Cloudy
2:51 PM 63.0 °F - 32.0 °F 31% 30.32 in 10.0 mi SSW 11.5 mph 19.6 mph N/A   Partly Cloudy
3:51 PM 61.0 °F - 37.0 °F 41% 30.30 in 10.0 mi NNE 18.4 mph - N/A   Partly Cloudy
4:51 PM 57.9 °F - 36.0 °F 44% 30.29 in 10.0 mi NNE 15.0 mph - N/A   Partly Cloudy
5:51 PM 57.9 °F - 36.0 °F 44% 30.27 in 10.0 mi North 11.5 mph - N/A   Partly Cloudy
6:51 PM 55.9 °F - 35.1 °F 45% 30.26 in 10.0 mi North 9.2 mph - N/A   Clear
7:51 PM 53.1 °F - 36.0 °F 52% 30.25 in 10.0 mi North 6.9 mph - N/A   Clear
8:51 PM 50.0 °F - 37.0 °F 61% 30.25 in 10.0 mi NE 3.5 mph - N/A   Clear
9:51 PM 54.0 °F - 37.0 °F 53% 30.24 in 10.0 mi ESE 8.1 mph - N/A   Clear
10:51 PM 57.0 °F - 30.9 °F 37% 30.23 in 10.0 mi SE 12.7 mph 19.6 mph N/A   Clear
11:51 PM 54.0 °F - 28.9 °F 38% 30.24 in 10.0 mi SE 9.2 mph - N/A   Clear